Regional Weather Roundup
Issued by NWS

Home | Current Version | Previous Version | Graphics & Text | Print | Product List | Glossary On
Versions: 1 2 3 4 5 6 7 8 9 10 11 12 13 14 15 16 17 18 19 20 21 22 23 24 25 26 27 28 29 30 31 32 33 34 35 36 37 38 39 40 41 42 43 44 45 46 47 48 49 50
000
ASUS43 KBIS 291810
RWRND

NORTH DAKOTA REGIONAL WEATHER ROUNDUP
NATIONAL WEATHER SERVICE BISMARCK ND
100 PM CDT MON JUN 29 2015

NOTE: "FAIR" INDICATES FEW OR NO CLOUDS BELOW 12,000 FEET WITH NO
SIGNIFICANT WEATHER AND/OR OBSTRUCTIONS TO VISIBILITY.


NDZ001>003-009>011-017-291900-
NORTHWEST NORTH DAKOTA

CITY           SKY/WX    TMP DP  RH WIND       PRES   REMARKS
WILLISTON      SUNNY     92  53  26 S9        29.97F
6HR MIN TEMP:  64; 6HR MAX TEMP:  93;

MINOT          SUNNY     86  60  41 NW9       29.94F
MINOT AFB      SUNNY     89  58  34 N10       29.93S
$$

NDZ018>021-031>035-040>046-291900-
SOUTHWEST NORTH DAKOTA

CITY           SKY/WX    TMP DP  RH WIND       PRES   REMARKS
BISMARCK       MOSUNNY   87  58  37 NW12      29.97S
6HR MIN TEMP:  60; 6HR MAX TEMP:  88;

DICKINSON      SUNNY     86  61  42 VRB7      30.02S
GARRISON         N/A     87  56  34 NW7       29.97S
6HR MIN TEMP:  58; 6HR MAX TEMP:  87;

HETTINGER ARPT SUNNY     85  61  44 W7        30.05S
$$

NDZ004>008-012>016-024-026-027-054-291900-
NORTHEAST NORTH DAKOTA

CITY           SKY/WX    TMP DP  RH WIND       PRES   REMARKS
GRAND FORKS    CLOUDY    75  63  66 NW10      29.85S
GRND FRKS AFB  SUNNY     74  63  68 N8        29.87S
DEVILS LAKE    SUNNY     75  61  60 N9        29.92S
$$

NDZ022-023-025-028>030-036>039-047>053-291900-
SOUTHEAST NORTH DAKOTA

CITY           SKY/WX    TMP DP  RH WIND       PRES   REMARKS
FARGO          SUNNY     77  64  64 N10       29.85S
6HR MIN TEMP:  64; 6HR MAX TEMP:  77;

JAMESTOWN      MOSUNNY   81  60  48 NW14G22   29.91S
$$



USA.gov is the U.S. government's official web portal to all federal, state and local government web resources and services.